Cosmos 1666 Rocket - Orbit

View from above orbital plane
View from above orbital plane
View from above satellite
View from above satellite

Ground track
Ground track

The orbit data is extracted from the following two-line orbital elements,

1 15890U 85058B   13168.66791663  .00000192  00000-0  20948-4 0  3670
2 15890 082.5256 186.6601 0020673 358.1033 135.8210 14.82430598508458
Epoch (UTC): 17 June 2013 16:01:47
Eccentricity: 0.0020673
inclination: 82.5256°
perigee height: 607 km
apogee height: 636 km
right ascension of ascending node: 186.6601°
argument of perigee: 358.1033°
revolutions per day: 14.82430598
mean anomaly at epoch: 135.8210°
orbit number at epoch: 50845

The dashed part of the orbit path shows where the satellite is in the earth's shadow,  

Developed and maintained by Chris Peat, Heavens-Above GmbH. Please read the updated FAQ before sending e-mail. Imprint. DLR